Location: Sceptre
(50.8619°N, 109.2670°W)
Time: 10:06:07
(UTC+00:00)

Prospero - Visible Passes

Search period start: 26 November 2022 00:00
Search period end: 06 December 2022 00:00
Orbit: 527 x 1292 km, 82.0° (Epoch: 25 November)

Date Brightness Start Highest point End Pass type
(mag) Time Alt. Az. Time Alt. Az. Time Alt. Az.
26 Nov9.303:37:36N03:37:36N03:22:38SWvisible
26 Nov 9.4 10:37:45 10° NNE 10:41:27 14° NE 10:45:18 10° E visible
26 Nov 7.8 12:20:10 10° N 12:27:17 50° ENE 12:34:59 10° SE visible
26 Nov 7.3 14:04:26 10° NNW 14:11:23 45° W 14:18:50 10° SSW visible
27 Nov 7.9 01:46:04 10° SSE 01:46:47 14° SSE 01:46:47 14° SSE visible
27 Nov8.903:42:49N03:42:49N03:30:11SWvisible
27 Nov 9.3 10:42:54 10° NNE 10:47:28 17° NE 10:52:15 10° E visible
27 Nov 7.6 12:25:45 10° N 12:33:05 60° ENE 12:40:57 10° SSE visible
27 Nov 7.5 14:10:13 10° NNW 14:16:58 38° W 14:24:08 10° SSW visible
28 Nov 6.6 01:51:22 10° S 02:04:38 - NNE 01:54:40 41° SSE visible
28 Nov 8.5 03:36:30 10° WSW 03:47:50 - N 03:38:07 18° WSW visible
28 Nov 9.1 10:48:11 10° N 10:53:27 20° NE 10:58:58 10° E visible
28 Nov 7.3 12:31:21 10° N 12:38:51 70° ENE 12:46:50 10° SSE visible
28 Nov 7.7 14:16:03 10° NNW 14:22:33 33° W 14:29:20 10° SW visible
29 Nov 7.8 00:17:09 10° E 00:19:15 12° ENE 00:19:44 12° ENE visible
29 Nov 6.1 01:56:44 10° S 02:01:47 72° E 02:03:15 51° NNE visible
29 Nov 8.3 03:42:33 10° WSW 03:52:19 - N 03:46:47 23° WNW visible
29 Nov 9.0 10:53:34 10° N 10:59:24 24° ENE 11:05:31 10° ESE visible
29 Nov 7.1 12:36:59 10° N 12:44:37 81° E 12:52:37 10° SSE visible
30 Nov 7.7 00:21:22 10° ESE 00:24:33 16° ENE 00:28:04 10° NE visible
30 Nov 6.1 02:02:11 10° S 02:07:23 88° E 02:13:51 10° NNE visible
30 Nov 8.6 03:48:41 10° W 03:52:41 20° NW 03:57:15 10° N visible
30 Nov 8.8 10:59:01 10° N 11:05:20 28° ENE 11:11:56 10° ESE visible
30 Nov 7.0 12:42:39 10° NNW 12:50:19 87° W 12:58:19 10° S visible
01 Dec 7.5 00:26:00 10° ESE 00:29:54 20° ENE 00:34:19 10° NNE visible
01 Dec 6.4 02:07:43 10° SSW 02:13:00 76° WNW 02:19:36 10° N visible
01 Dec 8.8 03:54:57 10° W 03:58:38 17° NW 04:02:44 10° NNW visible
01 Dec 8.5 11:04:31 10° N 11:11:15 32° ENE 11:18:14 10° SE visible
01 Dec 7.0 12:48:20 10° NNW 12:56:01 75° W 13:03:56 10° S visible
02 Dec 7.3 00:30:51 10° SE 00:35:15 25° E 00:40:23 10° NNE visible
02 Dec 6.8 02:13:21 10° SSW 02:18:41 62° WNW 02:25:18 10° N visible
02 Dec 9.0 04:01:22 10° W 04:04:35 15° NW 04:08:07 10° NNW visible
02 Dec 9.6 09:28:42 10° NNE 09:30:37 11° NE 09:32:33 10° ENE visible
02 Dec 8.3 11:10:03 10° N 11:17:08 38° ENE 11:24:24 10° SE visible
02 Dec 7.0 12:54:02 10° NNW 13:01:41 64° W 13:09:28 10° S visible
03 Dec 7.1 00:35:51 10° SE 00:40:40 32° E 00:46:23 10° NNE visible
03 Dec 7.2 02:19:01 10° SSW 02:24:24 51° WNW 02:31:01 10° N visible
03 Dec 9.2 04:07:59 10° WNW 04:10:36 13° NW 04:13:23 10° NNW visible
03 Dec 9.5 09:33:22 10° NNE 09:36:42 13° NE 09:40:07 10° ENE visible
03 Dec 8.0 11:15:37 10° N 11:22:59 44° ENE 11:30:30 10° SE visible
03 Dec 7.1 12:59:46 10° NNW 13:07:18 54° W 13:14:55 10° SSW visible
04 Dec 6.8 00:40:58 10° SSE 00:46:06 39° E 00:52:17 10° NNE visible
04 Dec 7.5 02:24:47 10° SW 02:30:10 43° WNW 02:36:41 10° N visible
04 Dec 9.3 04:15:01 10° NW 04:16:38 11° NW 04:18:19 10° NNW visible
04 Dec 9.4 09:38:28 10° NNE 09:42:46 15° NE 09:47:09 10° E visible
04 Dec 7.7 11:21:12 10° N 11:28:50 52° ENE 11:36:29 10° SE visible
04 Dec 7.3 13:05:33 10° NNW 13:12:54 46° W 13:20:17 10° SSW visible
05 Dec 6.7 00:46:10 10° SSE 00:51:35 49° E 00:58:09 10° NNE visible
05 Dec 7.9 02:30:38 10° SW 02:35:58 36° WNW 02:42:20 10° N visible
05 Dec 9.2 09:43:45 10° N 09:48:49 18° NE 09:53:56 10° E visible
05 Dec 7.5 11:26:50 10° N 11:34:37 61° ENE 11:42:23 10° SSE visible
05 Dec 7.5 13:11:21 10° NNW 13:18:28 39° W 13:25:32 10° SSW visible
